| time (UTC) | temp F | wind direction | speed MPH | gust MPH | rain 1hr in | rain 24hr in | rain mn in | humidity % | barometer mb |
| 20260906175009 | 78 | 343 | 3.0 | 10.0 | 0.00 | 0.12 | 0.11 | 31 | 1018.2 |
| 20260906174009 | 78 | 1 | 4.0 | 12.0 | 0.00 | 0.12 | 0.11 | 32 | 1018.1 |
| 20260906173009 | 77 | 138 | 2.0 | 9.0 | 0.08 | 0.12 | 0.11 | 33 | 1018.2 |
| 20260906172010 | 76 | 59 | 1.0 | 7.0 | 0.10 | 0.12 | 0.11 | 34 | 1018.1 |
| 20260906171009 | 75 | 230 | 0.0 | 3.0 | 0.11 | 0.12 | 0.11 | 36 | 1018.0 |
| 20260906170010 | 74 | 249 | 3.0 | 9.0 | 0.11 | 0.12 | 0.11 | 37 | 1017.9 |
| 20260906165009 | 73 | 160 | 0.0 | 3.0 | 0.11 | 0.12 | 0.11 | 40 | 1017.9 |
| 20260906164010 | 72 | 61 | 0.0 | 3.0 | 0.11 | 0.12 | 0.11 | 41 | 1017.8 |
| 20260906163010 | 72 | 158 | 0.0 | 6.0 | 0.03 | 0.04 | 0.03 | 42 | 1017.8 |
| 20260906162010 | 71 | 127 | 1.0 | 7.0 | 0.01 | 0.02 | 0.01 | 44 | 1017.9 |
| 20260906161010 | 70 | 104 | 0.0 | 0.0 | 0.00 | 0.01 | 0.00 | 46 | 1017.9 |
| 20260906155010 | 66 | 104 | 0.0 | 0.0 | 0.00 | 0.01 | 0.00 | 53 | 1018.0 |
| 20260906154009 | 64 | 104 | 0.0 | 0.0 | 0.00 | 0.01 | 0.00 | 54 | 1018.0 |
| 20260906153010 | 62 | 104 | 0.0 | 0.0 | 0.00 | 0.01 | 0.00 | 57 | 1018.0 |
| 20260906152009 | 61 | 104 | 0.0 | 5.0 | 0.00 | 0.01 | 0.00 | 60 | 1018.0 |
| 20260906151012 | 60 | 108 | 2.0 | 6.0 | 0.00 | 0.01 | 0.00 | 64 | 1018.0 |
| 20260906150009 | 58 | 131 | 1.0 | 5.0 | 0.00 | 0.01 | 0.00 | 68 | 1017.9 |
| 20260906145009 | 56 | 160 | 1.0 | 6.0 | 0.00 | 0.01 | 0.00 | 73 | 1017.8 |
| 20260906144010 | 56 | 140 | 2.0 | 6.0 | 0.00 | 0.01 | 0.00 | 76 | 1017.5 |
| 20260906143009 | 54 | 173 | 1.0 | 6.0 | 0.00 | 0.01 | 0.00 | 80 | 1017.5 |
| 20260906142010 | 53 | 138 | 1.0 | 7.0 | 0.00 | 0.01 | 0.00 | 83 | 1017.5 |
| 20260906141010 | 53 | 186 | 1.0 | 5.0 | 0.00 | 0.01 | 0.00 | 85 | 1017.4 |
| 20260906140010 | 52 | 153 | 2.0 | 3.0 | 0.00 | 0.01 | 0.00 | 86 | 1017.3 |
| 20260906134010 | 52 | 165 | 1.0 | 3.0 | 0.00 | 0.01 | 0.00 | 87 | 1017.1 |
| 20260906132009 | 51 | 131 | 0.0 | 6.0 | 0.00 | 0.01 | 0.00 | 91 | 1017.0 |
| 20260906131009 | 51 | 0 | 0.0 | 0.0 | 0.00 | 0.01 | 0.00 | 92 | 1017.1 |
| 20260906130009 | 50 | 0 | 0.0 | 0.0 | 0.00 | 0.01 | 0.00 | 91 | 1017.1 |
| 20260906125009 | 50 | 0 | 0.0 | 0.0 | 0.00 | 0.01 | 0.00 | 91 | 1017.1 |
| 20260906124009 | 51 | 0 | 0.0 | 0.0 | 0.00 | 0.01 | 0.00 | 91 | 1017.1 |
| 20260906121009 | 51 | 0 | 0.0 | 0.0 | 0.00 | 0.01 | 0.00 | 91 | 1017.2 |
| 20260906120009 | 51 | 0 | 0.0 | 0.0 | 0.00 | 0.01 | 0.00 | 91 | 1017.2 |
| 20260906115010 | 51 | 0 | 0.0 | 0.0 | 0.00 | 0.01 | 0.00 | 91 | 1017.2 |
| 20260906114010 | 51 | 0 | 0.0 | 0.0 | 0.00 | 0.01 | 0.00 | 91 | 1017.2 |
| 20260906113009 | 51 | 0 | 0.0 | 0.0 | 0.00 | 0.01 | 0.00 | 90 | 1017.2 |
| 20260906112010 | 51 | 0 | 0.0 | 0.0 | 0.00 | 0.01 | 0.00 | 90 | 1017.1 |
| 20260906110009 | 51 | 0 | 0.0 | 0.0 | 0.00 | 0.01 | 0.00 | 90 | 1017.1 |
| 20260906105010 | 51 | 0 | 0.0 | 0.0 | 0.00 | 0.01 | 0.00 | 89 | 1017.1 |
| 20260906103011 | 52 | 0 | 0.0 | 0.0 | 0.00 | 0.01 | 0.00 | 88 | 1017.2 |
| 20260906102010 | 52 | 0 | 0.0 | 0.0 | 0.00 | 0.01 | 0.00 | 87 | 1017.2 |
| 20260906100010 | 52 | 0 | 0.0 | 0.0 | 0.00 | 0.01 | 0.00 | 85 | 1017.2 |
| 20260906095010 | 53 | 0 | 0.0 | 0.0 | 0.00 | 0.01 | 0.00 | 84 | 1017.3 |
| 20260906094010 | 53 | 0 | 0.0 | 0.0 | 0.00 | 0.01 | 0.00 | 84 | 1017.2 |
| 20260906091010 | 54 | 0 | 0.0 | 0.0 | 0.00 | 0.01 | 0.00 | 82 | 1017.3 |
| 20260906090010 | 54 | 0 | 0.0 | 0.0 | 0.00 | 0.01 | 0.00 | 82 | 1017.3 |
| 20260906085010 | 54 | 0 | 0.0 | 0.0 | 0.00 | 0.01 | 0.00 | 83 | 1017.3 |
| 20260906083010 | 54 | 0 | 0.0 | 0.0 | 0.00 | 0.01 | 0.00 | 82 | 1017.5 |
| 20260906081010 | 54 | 0 | 0.0 | 0.0 | 0.00 | 0.01 | 0.00 | 81 | 1017.5 |
| 20260906080010 | 54 | 0 | 0.0 | 0.0 | 0.00 | 0.01 | 0.00 | 80 | 1017.5 |
| 20260906075009 | 54 | 0 | 0.0 | 0.0 | 0.00 | 0.01 | 0.00 | 80 | 1017.5 |
| 20260906074010 | 54 | 0 | 0.0 | 0.0 | 0.00 | 0.01 | 0.00 | 79 | 1017.5 |
| 20260906072010 | 55 | 0 | 0.0 | 0.0 | 0.00 | 0.01 | 0.00 | 78 | 1017.7 |
| 20260906071011 | 55 | 0 | 0.0 | 0.0 | 0.00 | 0.01 | 0.00 | 77 | 1017.7 |
| 20260906070010 | 55 | 0 | 0.0 | 0.0 | 0.00 | 0.01 | 0.00 | 76 | 1017.5 |
| 20260906065010 | 56 | 0 | 0.0 | 0.0 | 0.00 | 0.01 | 0.01 | 76 | 1017.5 |
| 20260906064009 | 56 | 0 | 0.0 | 0.0 | 0.00 | 0.01 | 0.01 | 75 | 1017.7 |
| 20260906063010 | 56 | 0 | 0.0 | 0.0 | 0.00 | 0.01 | 0.01 | 74 | 1017.7 |
| 20260906062009 | 57 | 0 | 0.0 | 0.0 | 0.00 | 0.01 | 0.01 | 72 | 1017.8 |
| 20260906061010 | 57 | 0 | 0.0 | 0.0 | 0.00 | 0.01 | 0.01 | 71 | 1017.8 |
| 20260906060009 | 57 | 0 | 0.0 | 0.0 | 0.00 | 0.01 | 0.01 | 71 | 1017.8 |
| 20260906055009 | 58 | 0 | 0.0 | 0.0 | 0.00 | 0.01 | 0.01 | 70 | 1017.9 |
| 20260906054009 | 58 | 0 | 0.0 | 0.0 | 0.00 | 0.01 | 0.01 | 68 | 1017.9 |
| 20260906051010 | 60 | 0 | 0.0 | 0.0 | 0.00 | 0.01 | 0.01 | 64 | 1018.0 |
| 20260906050010 | 60 | 0 | 0.0 | 0.0 | 0.00 | 0.01 | 0.01 | 63 | 1018.0 |
| 20260906045009 | 61 | 0 | 0.0 | 0.0 | 0.00 | 0.01 | 0.01 | 62 | 1018.1 |
| 20260906044010 | 61 | 0 | 0.0 | 0.0 | 0.00 | 0.01 | 0.01 | 60 | 1018.1 |
| 20260906043010 | 62 | 0 | 0.0 | 0.0 | 0.00 | 0.01 | 0.01 | 58 | 1018.0 |
| 20260906042010 | 63 | 0 | 0.0 | 0.0 | 0.00 | 0.01 | 0.01 | 58 | 1018.0 |
| 20260906041010 | 64 | 0 | 0.0 | 0.0 | 0.00 | 0.01 | 0.01 | 56 | 1018.1 |
| 20260906035010 | 66 | 0 | 0.0 | 0.0 | 0.00 | 0.01 | 0.01 | 51 | 1018.0 |
| 20260906034009 | 66 | 0 | 0.0 | 0.0 | 0.00 | 0.01 | 0.01 | 50 | 1017.2 |
| 20260906033010 | 67 | 0 | 0.0 | 0.0 | 0.01 | 0.01 | 0.01 | 48 | 1017.9 |
| 20260906032009 | 68 | 0 | 0.0 | 0.0 | 0.01 | 0.01 | 0.01 | 47 | 1017.0 |
| 20260906031009 | 68 | 0 | 0.0 | 0.0 | 0.01 | 0.01 | 0.01 | 47 | 1017.0 |
| 20260906030013 | 69 | 0 | 0.0 | 0.0 | 0.01 | 0.01 | 0.01 | 46 | 1016.2 |
| 20260906025010 | 69 | 0 | 0.0 | 0.0 | 0.01 | 0.01 | 0.01 | 45 | 1017.7 |
| 20260906024010 | 70 | 0 | 0.0 | 0.0 | 0.01 | 0.01 | 0.01 | 43 | 1017.1 |
| 20260906023010 | 71 | 0 | 0.0 | 0.0 | 0.00 | 0.00 | 0.00 | 42 | 1017.7 |
| 20260906022009 | 72 | 0 | 0.0 | 0.0 | 0.00 | 0.00 | 0.00 | 41 | 1017.7 |
| 20260906021009 | 73 | 0 | 0.0 | 3.0 | 0.00 | 0.00 | 0.00 | 40 | 1017.7 |
| 20260906020009 | 73 | 273 | 0.0 | 6.0 | 0.00 | 0.00 | 0.00 | 39 | 1017.8 |
| 20260906015009 | 74 | 213 | 0.0 | 0.0 | 0.00 | 0.00 | 0.00 | 38 | 1017.8 |
| 20260906013009 | 75 | 213 | 0.0 | 0.0 | 0.00 | 0.00 | 0.00 | 36 | 1017.8 |
| 20260906010009 | 77 | 165 | 1.0 | 6.0 | 0.00 | 0.00 | 0.00 | 33 | 1017.8 |
| 20260906005009 | 78 | 289 | 1.0 | 7.0 | 0.00 | 0.00 | 0.00 | 31 | 1017.7 |
| 20260906004010 | 79 | 250 | 0.0 | 6.0 | 0.00 | 0.00 | 0.00 | 30 | 1017.7 |
| 20260906002010 | 79 | 296 | 2.0 | 8.0 | 0.00 | 0.00 | 0.00 | 30 | 1017.8 |
| 20260906000009 | 80 | 178 | 2.0 | 8.0 | 0.00 | 0.00 | 0.00 | 29 | 1017.7 |
| 20260905235011 | 80 | 146 | 1.0 | 7.0 | 0.00 | 0.00 | 0.00 | 30 | 1017.8 |
| 20260905230012 | 79 | 288 | 1.0 | 10.0 | 0.00 | 0.00 | 0.00 | 32 | 1017.9 |
| 20260905225010 | 78 | 145 | 1.0 | 8.0 | 0.00 | 0.00 | 0.00 | 32 | 1018.1 |
| 20260905223010 | 78 | 98 | 2.0 | 6.0 | 0.00 | 0.00 | 0.00 | 32 | 1018.3 |
| 20260905221010 | 79 | 216 | 1.0 | 12.0 | 0.00 | 0.00 | 0.00 | 32 | 1018.2 |
| 20260905220010 | 80 | 301 | 2.0 | 13.0 | 0.00 | 0.00 | 0.00 | 30 | 1018.3 |
| 20260905215010 | 80 | 215 | 1.0 | 8.0 | 0.00 | 0.00 | 0.00 | 30 | 1018.4 |
| 20260905214010 | 80 | 271 | 3.0 | 10.0 | 0.00 | 0.00 | 0.00 | 29 | 1018.3 |
| 20260905213010 | 79 | 254 | 0.0 | 7.0 | 0.00 | 0.00 | 0.00 | 30 | 1018.3 |
| 20260905212009 | 79 | 16 | 1.0 | 12.0 | 0.00 | 0.00 | 0.00 | 31 | 1018.3 |
| 20260905211009 | 79 | 320 | 0.0 | 6.0 | 0.00 | 0.00 | 0.00 | 31 | 1018.4 |
| 20260905205010 | 80 | 178 | 2.0 | 12.0 | 0.00 | 0.00 | 0.00 | 30 | 1018.3 |
| 20260905204010 | 80 | 162 | 2.0 | 9.0 | 0.00 | 0.00 | 0.00 | 31 | 1018.2 |
| 20260905203010 | 80 | 277 | 3.0 | 12.0 | 0.00 | 0.00 | 0.00 | 31 | 1018.3 |
| 20260905202010 | 80 | 339 | 1.0 | 9.0 | 0.00 | 0.00 | 0.00 | 32 | 1018.3 |
| 20260905200011 | 80 | 334 | 3.0 | 9.0 | 0.00 | 0.00 | 0.00 | 32 | 1018.4 |
| 20260905194010 | 79 | 34 | 3.0 | 10.0 | 0.00 | 0.00 | 0.00 | 32 | 1018.4 |
| 20260905193010 | 79 | 149 | 4.0 | 10.0 | 0.00 | 0.00 | 0.00 | 33 | 1018.4 |
| 20260905192010 | 79 | 97 | 1.0 | 12.0 | 0.00 | 0.00 | 0.00 | 33 | 1018.4 |
| 20260905191010 | 79 | 334 | 2.0 | 12.0 | 0.00 | 0.00 | 0.00 | 33 | 1018.5 |
| 20260905190010 | 78 | 285 | 4.0 | 10.0 | 0.00 | 0.00 | 0.00 | 34 | 1018.5 |
| 20260905185013 | 78 | 190 | 2.0 | 10.0 | 0.00 | 0.00 | 0.00 | 33 | 1018.6 |
| 20260905184010 | 78 | 295 | 4.0 | 12.0 | 0.00 | 0.00 | 0.00 | 34 | 1018.6 |
| 20260905183009 | 78 | 291 | 1.0 | 8.0 | 0.00 | 0.00 | 0.00 | 34 | 1018.5 |
| 20260905182010 | 78 | 69 | 3.0 | 7.0 | 0.00 | 0.00 | 0.00 | 36 | 1018.5 |
| 20260905181010 | 77 | 246 | 1.0 | 7.0 | 0.00 | 0.00 | 0.00 | 38 | 1018.4 |